This demonstration page uses our WeatherBlox Daily Observations layout. Learn more.

Left ArrowRight Arrow

39.08367, -84.50855

Hourly Observations for August 20, 2015

Temp ( °F °C ) Dew Point ( °F °C ) Humidity (%) Winds ( mph kmh ) Pressure ( in mb ) Visibility ( mi km ) Precip ( " mm )
12:53 am 00:53 Mostly Cloudy 71 21.7 70 21.1 96 96 S 5 7 29.80 1009 10 16 N/A
1:53 am 01:53 Cloudy with Rain 71 21.7 71 21.7 100 100 S 6 9 29.80 1009 4 6 0.05 1.27
2:15 am 02:15 Cloudy with Heavy Rain 71 21.7 71 21.7 100 100 SSW 7 11 29.83 1010 2 3 0.09 2.29
2:25 am 02:25 Cloudy with Heavy Rain 71 21.7 71 21.7 100 100 SSW 8 13 29.80 1009 2 3 0.17 4.32
2:31 am 02:31 Cloudy with Rain 71 21.7 71 21.7 100 100 SSW 6 9 29.80 1009 3 5 0.18 4.57
2:53 am 02:53 Mostly Cloudy with Light Rain 71 21.7 71 21.7 100 100 SW 5 7 29.79 1009 7 11 0.21 5.33
3:31 am 03:31 Cloudy with Light Rain 71 21.7 70 21.1 96 96 S 8 13 29.83 1010 10 16 N/A
3:53 am 03:53 Cloudy with Light Rain 70 21.1 68 20 93 93 W 9 15 29.81 1010 10 16 0.02 0.51
4:20 am 04:20 Cloudy 70 21 66 19 88 88 WNW 7 11 29.83 1010 10 16 N/A
4:40 am 04:40 Cloudy 70 21 66 19 88 88 WNW 6 9 29.83 1010 10 16 N/A
4:53 am 04:53 Cloudy 70 21.1 68 20 93 93 W 7 11 29.82 1010 10 16 N/A
5:04 am 05:04 Cloudy 70 21 68 20 94 94 WSW 6 9 29.83 1010 10 16 N/A
5:25 am 05:25 Cloudy 69 20.6 68 20 96 96 WSW 8 13 29.85 1011 10 16 N/A
5:53 am 05:53 Cloudy 69 20.6 66 18.9 90 90 WSW 7 11 29.84 1011 10 16 N/A
6:19 am 06:19 Cloudy 68 20 66 18.9 93 93 W 9 15 29.88 1012 9 14 N/A
6:53 am 06:53 Cloudy 67 19.4 63 17.2 87 87 W 15 24 29.88 1012 10 16 N/A
7:32 am 07:32 Mostly Cloudy 64 18 61 16 88 88 W 15 24 29.91 1013 10 16 N/A
7:53 am 07:53 Mostly Sunny 65 18.3 60 15.6 84 84 W 14 22 29.92 1013 10 16 N/A
8:23 am 08:23 Mostly Cloudy 64 18 61 16 88 88 W 13 20 29.91 1013 10 16 N/A
8:53 am 08:53 Partly Cloudy 65 18.3 60 15.6 84 84 W 12 19 29.94 1014 10 16 N/A
9:53 am 09:53 Partly Cloudy 68 20 59 15 73 73 W 9 15 29.96 1015 10 16 N/A
10:53 am 10:53 Mostly Sunny 70 21.1 59 15 68 68 WSW 16 26 29.97 1015 10 16 N/A
11:53 am 11:53 Sunny 72 22.2 58 14.4 61 61 W 14 22 29.98 1015 10 16 N/A
12:53 pm 12:53 Partly Cloudy 73 22.8 58 14.4 59 59 WNW 9 15 29.99 1016 10 16 N/A
1:53 pm 13:53 Mostly Sunny 75 23.9 57 13.9 54 54 W 12 19 29.99 1016 10 16 N/A
2:53 pm 14:53 Partly Cloudy 76 24.4 58 14.4 54 54 WSW 14 22 29.98 1015 10 16 N/A
3:53 pm 15:53 Partly Cloudy 76 24.4 56 13.3 50 50 WSW 14 22 29.98 1015 10 16 N/A
4:53 pm 16:53 Mostly Sunny 76 24.4 56 13.3 50 50 W 12 19 29.97 1015 10 16 N/A
5:53 pm 17:53 Partly Cloudy 75 23.9 55 12.8 50 50 WSW 10 17 29.98 1015 10 16 N/A
6:53 pm 18:53 Partly Cloudy 75 23.9 55 12.8 50 50 W 10 17 29.99 1016 10 16 N/A
7:53 pm 19:53 Partly Cloudy 73 22.8 53 11.7 50 50 W 10 17 30.00 1016 10 16 N/A
8:53 pm 20:53 Clear 70 21.1 53 11.7 55 55 N N/A 30.02 1017 10 16 N/A
9:53 pm 21:53 Clear 63 17.2 59 15 87 87 N N/A 30.04 1017 10 16 N/A
10:53 pm 22:53 Clear 61 16.1 58 14.4 90 90 N N/A 30.06 1018 10 16 N/A
11:53 pm 23:53 Clear 59 15 58 14.4 96 96 N N/A 30.08 1019 10 16 N/A

Powered by AerisWeather